GW2134 Weather Reports


Display with metric or nautical units.
time (UTC)temp
F
wind
direction
speed
MPH
gust
MPH
rain 1hr
in
rain 24hr
in
rain mn
in
humidity
%
barometer
mb
20260905151609 87 0 2.0 8.0 0.00 0.00 0.00 51 1022.1
20260905150057 88 67 3.0 8.0 0.00 0.00 0.00 49 1022.1
20260905144555 88 115 0.0 7.0 0.00 0.00 0.00 47 1022.1
20260905143100 88 110 1.0 7.0 0.00 0.00 0.00 46 1022.2
20260905141601 88 114 2.0 9.0 0.00 0.00 0.00 47 1022.2
20260905140108 88 103 3.0 7.0 0.00 0.00 0.00 47 1022.2
20260905134554 88 89 2.0 9.0 0.00 0.00 0.00 46 1022.4
20260905133102 88 0 2.0 9.0 0.00 0.00 0.00 43 1022.6
20260905131608 88 129 4.0 10.0 0.00 0.00 0.00 43 1022.6
20260905130110 88 120 3.0 9.0 0.00 0.00 0.00 45 1022.7
20260905124603 88 139 3.0 9.0 0.00 0.00 0.00 45 1022.7
20260905123102 88 131 3.0 9.0 0.00 0.00 0.00 44 1022.7
20260905121603 88 134 1.0 5.0 0.00 0.00 0.00 42 1022.7
20260905120113 87 19 4.0 10.0 0.00 0.00 0.00 41 1022.7
20260905114558 88 113 4.0 12.0 0.00 0.00 0.00 37 1022.7
20260905113056 88 111 3.0 9.0 0.00 0.00 0.00 35 1022.7
20260905111613 88 97 3.0 10.0 0.00 0.00 0.00 35 1022.7
20260905110101 88 111 3.0 8.0 0.00 0.00 0.00 34 1022.8
20260905104600 88 336 1.0 10.0 0.00 0.00 0.00 33 1022.7
20260905103056 88 90 4.0 8.0 0.00 0.00 0.00 32 1022.8
20260905101606 88 95 3.0 8.0 0.00 0.00 0.00 30 1022.7
20260905094558 87 151 2.0 8.0 0.00 0.00 0.00 30 1023.0
20260905093102 87 136 3.0 8.0 0.00 0.00 0.00 30 1023.1
20260905091606 86 5 0.0 3.0 0.00 0.00 0.00 30 1023.0
20260905090053 85 198 1.0 6.0 0.00 0.00 0.00 34 1022.8
20260905084618 84 0 1.0 4.0 0.00 0.00 0.00 34 1022.8
20260905083056 83 22 0.0 3.0 0.00 0.00 0.00 33 1022.6
20260905081559 82 0 0.0 3.0 0.00 0.00 0.00 35 1022.4
20260905074605 80 0 0.0 2.0 0.00 0.00 0.00 38 1022.3
20260905073103 80 0 0.0 4.0 0.00 0.00 0.00 39 1022.2
20260905071600 79 101 0.0 5.0 0.00 0.00 0.00 41 1022.1
20260905070105 77 0 0.0 2.0 0.00 0.00 0.00 44 1021.9
20260905064559 75 90 0.0 3.0 0.00 0.00 0.00 46 1021.7
20260905063058 74 86 0.0 2.0 0.00 0.00 0.00 45 1021.5
20260905061606 73 0 0.0 2.0 0.00 0.00 0.00 47 1021.5
20260905060100 73 0 0.0 3.0 0.00 0.00 0.00 47 1021.6
20260905054559 73 86 0.0 3.0 0.00 0.00 0.00 47 1021.5
20260905053141 73 339 2.0 4.0 0.00 0.00 0.00 46 1021.6
20260905051559 72 0 2.0 5.0 0.00 0.00 0.00 46 1021.7
20260905050056 72 355 1.0 4.0 0.00 0.00 0.00 46 1021.5
20260905044603 72 334 2.0 5.0 0.00 0.00 0.00 48 1021.6
20260905043103 72 0 0.0 3.0 0.00 0.00 0.00 48 1021.4
20260905041559 72 323 2.0 5.0 0.00 0.00 0.00 47 1021.5
20260905040053 72 0 0.0 3.0 0.00 0.00 0.00 47 1021.6
20260905034602 72 283 0.0 4.0 0.00 0.00 0.00 48 1021.4
20260905033102 73 307 0.0 4.0 0.00 0.00 0.00 46 1021.5
20260905031554 73 10 1.0 5.0 0.00 0.00 0.00 46 1021.5
20260905024623 72 360 0.0 4.0 0.00 0.00 0.00 48 1021.9
20260905023105 72 0 0.0 3.0 0.00 0.00 0.00 48 1021.7
20260905021552 72 0 0.0 2.0 0.00 0.00 0.00 49 1021.9
20260905020111 72 0 1.0 3.0 0.00 0.00 0.00 50 1022.0
20260905014615 72 318 2.0 5.0 0.00 0.00 0.00 49 1022.1
20260905013104 72 308 0.0 4.0 0.00 0.00 0.00 50 1022.0
20260905011559 73 326 2.0 5.0 0.00 0.00 0.00 49 1022.1
20260905004558 73 342 2.0 5.0 0.00 0.00 0.00 49 1022.1
20260905003056 73 329 1.0 4.0 0.00 0.00 0.00 49 1022.2
20260905001603 73 321 2.0 6.0 0.00 0.00 0.00 49 1022.2
20260905000109 73 338 2.0 4.0 0.00 0.00 0.00 48 1022.5
20260904234600 73 340 1.0 4.0 0.00 0.00 0.00 49 1022.7
20260904233103 73 360 0.0 3.0 0.00 0.00 0.00 48 1022.7
20260904231603 73 319 0.0 3.0 0.00 0.00 0.00 49 1022.9
20260904230108 74 325 2.0 4.0 0.00 0.00 0.00 48 1022.9
20260904224607 74 326 1.0 4.0 0.00 0.00 0.00 50 1023.0
20260904223057 74 0 0.0 5.0 0.00 0.00 0.00 48 1023.1
20260904221559 74 0 0.0 4.0 0.00 0.00 0.00 48 1023.1
20260904220104 74 337 2.0 5.0 0.00 0.00 0.00 45 1023.0
20260904214605 74 0 1.0 3.0 0.00 0.00 0.00 47 1023.0
20260904213056 75 326 4.0 6.0 0.00 0.00 0.00 45 1023.1
20260904211554 75 5 3.0 6.0 0.00 0.00 0.00 50 1023.2
20260904210105 75 317 4.0 6.0 0.00 0.00 0.00 45 1023.2
20260904204604 75 331 1.0 4.0 0.00 0.00 0.00 47 1023.2
20260904203104 76 340 3.0 5.0 0.00 0.00 0.00 46 1023.5
20260904201636 76 360 1.0 6.0 0.00 0.00 0.00 46 1023.5
20260904200119 76 360 5.0 8.0 0.00 0.00 0.00 44 1023.4
20260904194606 76 329 3.0 5.0 0.00 0.00 0.00 47 1023.4
20260904193110 76 324 3.0 7.0 0.00 0.00 0.00 49 1023.4
20260904191602 76 323 4.0 8.0 0.00 0.00 0.00 49 1023.3
20260904190110 77 334 4.0 5.0 0.00 0.00 0.00 49 1023.1
20260904184605 78 314 3.0 5.0 0.00 0.00 0.00 52 1023.1
20260904183102 79 325 2.0 5.0 0.00 0.00 0.00 51 1023.0
20260904181559 79 345 3.0 6.0 0.00 0.00 0.00 49 1022.8
20260904180104 81 331 3.0 5.0 0.00 0.00 0.00 43 1022.7
20260904174601 82 0 0.0 2.0 0.00 0.00 0.00 43 1022.5
20260904173126 83 0 0.0 1.0 0.00 0.00 0.00 43 1022.6
20260904171611 83 0 0.0 4.0 0.00 0.00 0.00 44 1022.6
20260904170105 84 0 0.0 4.0 0.00 0.00 0.00 45 1022.6
20260904164601 85 41 1.0 3.0 0.00 0.00 0.00 44 1022.7
20260904163108 86 0 0.0 1.0 0.00 0.00 0.00 45 1022.8
20260904161605 86 157 0.0 6.0 0.00 0.00 0.00 44 1022.8
20260904160054 87 176 1.0 9.0 0.00 0.00 0.00 43 1022.9
20260904154601 88 194 4.0 13.0 0.00 0.00 0.00 40 1022.8
20260904153059 90 198 3.0 9.0 0.00 0.00 0.00 39 1022.9